User: anonymous   Login
Location: Cran-Gévrier
(45.9039°N, 6.1012°E)
Time: 13:38:30
(UTC+00:00)
Language:

FENGYUN 1C DEB - Orbit

View from above orbital plane
View from above orbital plane
View from above satellite
View from above satellite

Ground track
Ground track

The orbit data is extracted from the following two-line orbital elements,

1 30217U 99025WA  24053.77791178  .00000747  00000-0  31617-3 0  9998
2 30217  98.3942  59.8799 0142548 227.8899 131.0091 14.22949195886953
Epoch (UTC): 22 February 2024 18:40:11
Eccentricity: 0.0142548
inclination: 98.3942°
perigee height: 713 km
apogee height: 918 km
right ascension of ascending node: 59.8799°
argument of perigee: 227.8899°
revolutions per day: 14.22949195
mean anomaly at epoch: 131.0091°
orbit number at epoch: 88695

The dashed part of the orbit path shows where the satellite is in the earth's shadow,  

DLR